Regional Weather Roundup
Issued by NWS Sioux Falls, SD

Home | Current Version | Previous Version | Graphics & Text | Print | Product List | Glossary On
Versions: 1 2 3 4 5 6 7 8 9 10 11 12 13 14 15 16 17 18 19 20 21 22 23 24 25 26 27 28 29 30 31 32 33 34 35 36 37 38 39 40 41 42 43 44 45 46 47 48 49 50
000
ASUS43 KFSD 200010
RWRFSD

WEATHER ROUNDUP FOR SE SOUTH DAKOTA/SW MINNESOTA/NW IOWA
NATIONAL WEATHER SERVICE SIOUX FALLS SD
700 PM CDT SAT AUG 19 2017

NOTE: "FAIR" INDICATES FEW OR NO CLOUDS BELOW 12,000 FEET WITH NO
SIGNIFICANT WEATHER AND OR OBSTRUCTIONS TO VISIBILITY.


SDZ038>040-050-052>070-200100-
SOUTHEAST SOUTH DAKOTA

CITY           SKY/WX    TMP DP  RH WIND       PRES   REMARKS
BROOKINGS      SUNNY     76  64  66 S9        29.85S
CHAMBERLAIN    SUNNY     85  70  61 E10       29.76F
6HR MIN TEMP:  83; 6HR MAX TEMP:  90;

HURON          SUNNY     80  65  59 S13       29.78F
6HR MIN TEMP:  78; 6HR MAX TEMP:  83;

MADISON        FAIR      75  64  69 S10G18    29.85F
MITCHELL       SUNNY     81  65  58 SE13      29.80F
6HR MIN TEMP:  79; 6HR MAX TEMP:  84;

SIOUX FALLS    PTSUNNY   79  64  60 S12G21    29.84F
6HR MIN TEMP:  77; 6HR MAX TEMP:  82;

WINNER         FAIR      88  70  55 E12       29.76F
YANKTON        CLOUDY    80  65  59 SE12      29.83S
$$

MNZ071-072-080-081-089-090-097-098-200100-
SOUTHWEST MINNESOTA

CITY           SKY/WX    TMP DP  RH WIND       PRES   REMARKS
FAIRMONT       SUNNY     76  66  71 S7        29.89F
JACKSON        SUNNY     75  64  69 CALM      29.90F
LUVERNE        PTSUNNY   77  63  61 S7        29.86F
MARSHALL       SUNNY     77  65  66 S9        29.85
6HR MIN TEMP:  77; 6HR MAX TEMP:  80; 6HR PCP:  0.09;

MONTEVIDEO     SUNNY     77  64  65 S7        29.84F
PIPESTONE      MOSUNNY   75  64  69 S8        29.86F
REDWOOD FALLS  SUNNY     77  65  66 S9        29.85F
TRACY          SUNNY     77  66  69 S6        29.86F
WINDOM         SUNNY     77  63  61 S8        29.88F
WORTHINGTON    PTSUNNY   76  65  68 SE7       29.89F
$$

IAZ001>003-012>014-020>022-031-032-NEZ013-014-SDZ071-200100-
NORTHWEST IOWA

CITY           SKY/WX    TMP DP  RH WIND       PRES   REMARKS
CHEROKEE       CLOUDY    77  65  66 SE6       29.87F
DENISON        SUNNY     77  66  69 SE3       29.91S
ESTHERVILLE    SUNNY     75  67  76 S7        29.89F
LE MARS        MOSUNNY   79  66  65 SE8       29.84F
ORANGE CITY    CLOUDY    79  66  65 SE6       29.86F
SHELDON        MOSUNNY   77  66  69 SE7       29.86S
SIOUX CITY     SUNNY     80  67  64 S10       29.84F
6HR MIN TEMP:  78; 6HR MAX TEMP:  83;

SPENCER        PTSUNNY   79  66  64 S8        29.88F
6HR MIN TEMP:  76; 6HR MAX TEMP:  81;

STORM LAKE     SUNNY     73  66  78 SE7       29.89F
$$

ABBREVIATIONS USED IN REMARKS
   TC - TEMPERATURE IN CELSIUS
  WCI - WIND CHILL INDEX
   HX - HEAT INDEX
  VSB - VISIBILITY





USA.gov is the U.S. government's official web portal to all federal, state and local government web resources and services.